User: anonymous   Login
Location: Caltech
(34.1382°N, 118.1253°W)
Time: 16:41:44
(UTC-07:00)
Language:

UOSAT-12 - Orbit

View from above orbital plane
View from above orbital plane
View from above satellite
View from above satellite

Ground track
Ground track

The orbit data is extracted from the following two-line orbital elements,

1 25693U 99021A   17289.68720107 -.00000045  00000-0  13320-4 0  9997
2 25693  64.5544 111.2069 0043492 295.8881  63.7744 14.80760994998159
Epoch (UTC): 16 October 2017 16:29:34
Eccentricity: 0.0043492
inclination: 64.5544°
perigee height: 596 km
apogee height: 657 km
right ascension of ascending node: 111.2069°
argument of perigee: 295.8881°
revolutions per day: 14.80760994
mean anomaly at epoch: 63.7744°
orbit number at epoch: 99815

The dashed part of the orbit path shows where the satellite is in the earth's shadow,  

DLR